User: anonymous   Login
Location: Follega
(52.8850°N, 5.7362°E)
Time: 15:17:51
(UTC+00:00)
Language:

Cosmos 1953 - Orbit

View from above orbital plane
View from above orbital plane
View from above satellite
View from above satellite

Ground track
Ground track

The orbit data is extracted from the following two-line orbital elements,

1 19210U 88050A   21173.63826317 -.00000025  00000-0 -37149-5 0  9992
2 19210  82.5166  50.4261 0011242 297.6352  62.3733 15.06288992777381
Epoch (UTC): 22 June 2021 15:19:05
Eccentricity: 0.0011242
inclination: 82.5166°
perigee height: 540 km
apogee height: 555 km
right ascension of ascending node: 50.4261°
argument of perigee: 297.6352°
revolutions per day: 15.06288992
mean anomaly at epoch: 62.3733°
orbit number at epoch: 77738

The dashed part of the orbit path shows where the satellite is in the earth's shadow,  

DLR